Regional Weather Roundup
Issued by NWS Midland/Odessa, TX

Skip options and go directly to product.
Home | Oldest Version | Previous Version | Current Version | All | Text Only | Save Text | Print | Product List | Glossary On

Skip product version selection by date and time.   
038
ASUS44 KMAF 042101
RWRMAF
MIDLAND AREA WEATHER ROUNDUP
NATIONAL WEATHER SERVICE MIDLAND TX
400 PM CDT FRI SEP 04 2015

...IN SOUTHWEST TEXAS AND SOUTHEAST NEW MEXICO...

CITY           SKY/WX    TMP DP  RH WIND       PRES   REMARKS
ALPINE         FAIR      89  47  23 CALM      30.07F
ANDREWS        FAIR      94  53  25 S7G22     29.97F
ARTESIA        FAIR      93  48  21 SE16G25   29.95F
BIG SPRING     FAIR      92  54  27 E8G17     29.96F
CARLSBAD       FAIR      98  45  16 SE12      29.92F
DRYDEN           N/A     98  55  23 VRB3      29.88F
FORT STOCKTON  FAIR      96  53  23 E15G24    29.93F
GUAD PASS      FAIR      88  49  25 CALM      30.10F
HOBBS          SUNNY     91  48  22 SE13G20   30.00F
MARFA          FAIR      90  48  24 SE7       30.07F
MIDLAND AIRPK  FAIR      95  53  23 E6        29.96F
MIDLAND INTL   FAIR      93  54  26 S6G18     29.94F
ODESSA         FAIR      95  52  23 S14       29.96F
PECOS          FAIR      98  50  19 E15       29.89F
PRESIDIO       FAIR      98  50  19 E9        29.89F
SEMINOLE       FAIR      93  50  22 S16       29.98F
SNYDER         FAIR      93  58  30 E5        29.95F
WINK           FAIR      97  48  18 SE16      29.91F
$$
...OTHER STATIONS IN TEXAS...

CITY           SKY/WX    TMP DP  RH WIND       PRES   REMARKS
ABILENE        FAIR      92  61  35 S9        29.92F
AMARILLO       FAIR      92  56  29 S20G26    29.98F
AUSTIN         FAIR      96  67  38 SE10      29.88F HX 100
BROWNSVILLE    FAIR      92  76  59 SE16      29.86F HX 104
CORPUS CHRISTI PTSUNNY   91  76  61 SE21G28   29.87F HX 103
DALLAS FTW     PTSUNNY   93  66  40 SE7       29.90F
DEL RIO        FAIR      99  62  29 S15G23    29.83F HX 100
EL PASO        PTSUNNY   89  51  27 NW8       29.99F
HOUSTON INT    PTSUNNY   90  73  57 S3        29.92F
LUBBOCK        FAIR      93  56  28 S12       29.98F
SAN ANGELO     FAIR      97  58  27 MISG      29.90F
SAN ANTONIO    FAIR      95  67  39 VRB5      29.89F
WACO           FAIR      95  65  37 VRB3      29.90F
WICHITA FALLS  NOT AVBL
$$
...OTHER LOCATIONS IN NEW MEXICO...

CITY           SKY/WX    TMP DP  RH WIND       PRES   REMARKS
ALAMAGORDO     FAIR      86  48  26 W3        30.03S
ALBUQUERQUE    LGT RAIN  68  58  70 S14       30.16R
CANNON AFB     FAIR      85  53  33 SE13G20   30.01F
CLOVIS         PTSUNNY   88  52  29 S17G26    30.03S
HOLLOMAN AFB   PTSUNNY   86  49  28 NW5       30.00F
ROSWELL        FAIR      98  47  17 S15G29    29.95F
RUIDOSO        FAIR      70  54  56 NE6       30.23F
SANTA FE       LGT RAIN  69  52  54 SW10      30.18R
TRUTH OR CONSE PTSUNNY   74  57  55 CALM      30.08F
TUCUMCARI      PTSUNNY   89  49  25 SW10      29.99F
$$

USA.gov is the U.S. government's official web portal to all federal, state and local government web resources and services.